{"data":{"norad_id":66320,"intl_designator":"2025-253B","name":"STARLINK-34616","alt_names":[],"object_type":"PAYLOAD","status":"ACTIVE","operator":null,"country":"US","launch_date":"2025-11-06","launch_site_code":"AFETR","launch_vehicle":null,"mission":null,"orbit_class":"UNKNOWN","rcs_meters":null,"size_class":null,"mass_kg":null,"dimensions":null,"purposes":["comms"],"wikipedia_slug":null,"has_3d_model":false,"image_url":null,"decayed_at":null,"tle_current":{"epoch":"2026-09-20T04:18:27.807264Z","epoch_age_seconds":124405,"freshness":"FRESH","line1":"1 66320U 25253B   26263.17948851  .00006350  00000+0  24001-3 0  9999","line2":"2 66320  43.0011 193.7461 0001081 277.9809  82.0920 15.27588303 50076","mean_motion":15.27588303,"eccentricity":0.0001081,"inclination_deg":43.0011,"raan_deg":193.7461,"arg_perigee_deg":277.9809,"mean_anomaly_deg":82.092,"bstar":0.00024001,"rev_number":5007,"period_min":94.266236339465,"perigee_km":482.28254245388,"apogee_km":483.76592551267,"semimajor_km":6861.1612339833,"source":"CELESTRAK","updated_at":"2026-09-21T09:00:35.872948Z"}}}